Regional Weather Roundup
Issued by NWS Newport/Morehead, NC

Current Version | Previous Version | Text Only | Print | Product List | Glossary On
Versions: 1 2 3 4 5 6 7 8 9 10 11 12 13 14 15 16 17 18 19 20 21 22 23 24 25 26 27 28 29 30 31 32 33 34 35 36 37 38 39 40 41 42 43 44 45 46 47 48 49 50
000
ASUS42 KMHX 240913
RWRMHX
WEATHER ROUNDUP FOR EASTERN NORTH CAROLINA
NATIONAL WEATHER SERVICE NEWPORT/MOREHEAD CITY NC
500 AM EDT WED MAY 24 2017

NOTE: "FAIR" INDICATES FEW OR NO CLOUDS BELOW 12,000 FEET
WITH NO SIGNIFICANT WEATHER AND/OR OBSTRUCTIONS TO VISIBILITY

NCZ015>017-031-032-045>047-102-103-241000-
NORTH COAST

CITY           SKY/WX    TMP DP  RH WIND       PRES   REMARKS
EDENTON        CLOUDY    66  64  93 CALM      29.65S
ELIZABETH CITY CLOUDY    63  63 100 NW7       29.64S
KITTY HAWK     CLOUDY    70  70 100 CALM      29.63R
MANTEO         DRIZZLE   70  68  95 W5        29.64S

$$

NCZ045>047-081-094-103-104-241000-
CENTRAL COAST

CITY           SKY/WX    TMP DP  RH WIND       PRES   REMARKS
FRISCO         NOT AVBL

$$

NCZ095-097-098-100-101-241000-
SOUTHERN COAST

CITY           SKY/WX    TMP DP  RH WIND       PRES   REMARKS
BEAUFORT       CLOUDY    72  69  90 W14       29.65F
CEDAR ISLAND   NOT AVBL
JACKSONVILLE   NOT AVBL
PINEY ISLAND   CLOUDY   N/A N/A N/A W12       29.64F
WILMINGTON     CLOUDY    70  68  93 W8        29.67F


$$

NCZ011>013-027>030-043-044-078>080-089-090>093-098-241000-
COASTAL PLAIN

CITY           SKY/WX    TMP DP  RH WIND       PRES   REMARKS
AHOSKIE        DRIZZLE   61  60  99 CALM      29.66R
CLINTON        CLOUDY    67  67 100 CALM      29.67F
ELIZABETHTOWN  CLOUDY    68  68 100 CALM      29.67F
GOLDSBORO      CLOUDY    66  66 100 SW5       29.63F
GREENVILLE     CLOUDY    66  66 100 SW3       29.68S
HAVELOCK       MOCLDY    70  67  90 W9        29.66F
KENANSVILLE    CLOUDY    66  66 100 SW7       29.67F
KINSTON        CLOUDY    67  67  97 SW3       29.66S
NEW BERN       MOCLDY    68  68 100 SW5       29.67S
RICHLANDS      CLOUDY    68  67  96 SW6       29.67F
ROCKY MOUNT    CLOUDY    63  63 100 CALM      29.65R FOG
WASHINGTON     CLOUDY    66  66  99 W3        29.65R
WHITEVILLE     CLOUDY    69  67  95 CALM      29.67S

$$

AMZ130-135-150-152-154-156-158-170-250-252-270-ANZ085-086-088-633-658-670-241000-
MARINE OBSERVATIONS

STATION/POSITION TIME  TEMP    WIND        PRES    WAVE   SWELL
                       AIR SEA DIR/SP/G            HT/PER HT/PER
                 (UTC) (F)     (DEG/KT/KT) (MB)    (FT/S) (FT/S)
CHESAPEAKE LIGHT NOT AVBL
64 E VA BEACH    0850   65 64  260/ 10/ 12 1003.5    4/ 7   3/ 7
DUCK             0848   67 61  300/  6/ 14 1003.1
2 E DUCK         0900      64                N/A     3/ 5   2/11
OREGON INLET     0842   70 71  230/ 18/ 22 1003.0
13E OREGON INLT  0848      65                N/A     5/ 7   2/11
HATTERAS CG      0848   72 73  210/ 12/ 18 1003.6
DIAMOND BUOY     0850   74 74  210/ 17/ 23 1003.9    6/ 5   2/11
CAPE LOOKOUT     0900   72     270/ 16/ 18 1003.8
BEAUFORT LAB     0848   72 72  290/  6/  8 1003.5
30 SE NEW RVR IN 0808   75 76  280/ 16/ 23 1004.5
30 SE NEW RVR IN 0843      76                N/A     7/ 7
27 SE WRIGHTSVLE 0808   74 75  260/ 16/ 23 1004.0
5 SE WRIGHTSVLE  0808   72 74  260/ 12/ 17 1004.9
225 S CAPE HAT   0750   77 76  200/ 23/ 29 1009.6    7/ 6   2/12
41 SE CHARLESTON 0850   77 77  220/ 29/ 35 1004.9    8/ 7

$$



USA.gov is the U.S. government's official web portal to all federal, state and local government web resources and services.